Weather reports worldwide

Advertisment
Mombasa, Kenya (63820): temperature & dewpoint: 02.07.2020 17:00:00 - 08.07.2020 17:00:00 (EAT)Mombasa, Kenya (63820): wind speed: 02.07.2020 17:00:00 - 08.07.2020 17:00:00 (EAT)Mombasa, Kenya (63820): wind direction: 02.07.2020 17:00:00 - 08.07.2020 17:00:00 (EAT)Mombasa, Kenya (63820): reduced air pressure: 02.07.2020 17:00:00 - 08.07.2020 17:00:00 (EAT)Mombasa, Kenya (63820): visibility: 02.07.2020 17:00:00 - 08.07.2020 17:00:00 (EAT)Mombasa, Kenya (63820): precipitation: 02.07.2020 17:00:00 - 08.07.2020 17:00:00 (EAT)
Date & Time tt [°C] td [°C] ff [km/h] ff [kn] dd ppp [hPa] vv [km] rr [mm]
08.07.2020 17:00:00 28,0 21,0 21 11 S - 10 -
08.07.2020 16:00:00 29,0 20,0 22 12 S - 10 -
08.07.2020 15:00:00 30,3 20,9 26 14 SSW 1013,3 10 0,0
08.07.2020 14:00:00 31,0 21,0 24 13 S - 10 -
08.07.2020 13:00:00 30,0 22,0 24 13 SSW - 10 -
08.07.2020 12:00:00 30,0 21,4 28 15 SSW 1015,2 10 -
08.07.2020 11:00:00 29,0 22,0 22 12 SSW - 10 -
08.07.2020 10:00:00 29,0 22,0 28 15 SSW - 10 -
08.07.2020 09:00:00 25,1 22,4 11 6 SW 1016,5 30 0,0
08.07.2020 08:00:00 23,0 22,0 9 5 WSW - 10 -
08.07.2020 07:00:00 23,0 22,0 5 3 WSW - 10 -
08.07.2020 06:00:00 22,8 21,9 11 6 SW 1014,9 30 -
08.07.2020 05:00:00 23,0 22,0 8 4 SW - 10 -
08.07.2020 04:00:00 23,0 22,0 11 6 WSW - 10 -
08.07.2020 03:00:00 23,3 22,2 15 8 SW 1014,1 30 0,0
08.07.2020 02:00:00 24,0 22,0 15 8 SSW - 10 -
08.07.2020 01:00:00 24,0 22,0 8 4 SSW - 10 -
08.07.2020 00:00:00 24,6 22,4 11 6 SSW 1015,5 30 -
07.07.2020 23:00:00 25,0 22,0 9 5 S - 10 -
07.07.2020 22:00:00 25,0 22,0 13 7 S - 10 -
07.07.2020 21:00:00 25,2 22,2 11 6 S 1014,5 10 0,0
07.07.2020 20:00:00 25,0 22,0 13 7 S - 10 -
07.07.2020 19:00:00 26,0 22,0 13 7 S - 10 -
07.07.2020 18:00:00 26,9 21,0 16 9 S 1013,7 10 -
07.07.2020 17:00:00 28,0 21,0 21 11 S - 10 -
07.07.2020 16:00:00 29,0 20,0 22 12 S - 10 -
07.07.2020 15:00:00 29,4 20,7 26 14 SSW 1013,2 30 0,0
07.07.2020 14:00:00 29,0 21,0 26 14 S - 10 -
07.07.2020 13:00:00 29,0 21,0 28 15 S - 10 -
07.07.2020 12:00:00 29,4 20,7 22 12 SSW 1014,9 30 -
07.07.2020 11:00:00 28,0 21,0 22 12 SSW - 10 -
07.07.2020 10:00:00 28,0 21,0 24 13 SSW - 10 -
07.07.2020 09:00:00 26,6 20,5 28 15 SSW 1015,5 30 0,0
07.07.2020 08:00:00 25,0 22,0 22 12 SSW - 10 -
07.07.2020 07:00:00 23,0 21,0 15 8 SW - 10 -
07.07.2020 06:00:00 22,3 21,3 9 5 SW 1014,1 10 -
07.07.2020 05:00:00 22,0 21,0 11 6 SW - 10 -
07.07.2020 04:00:00 22,0 21,0 9 5 SW - 10 -
07.07.2020 03:00:00 22,4 21,3 9 5 WSW 1013,7 10 0,0
07.07.2020 02:00:00 23,0 22,0 9 5 SW - 10 -
07.07.2020 01:00:00 23,0 21,0 9 5 SSW - 10 -
07.07.2020 00:00:00 - - - - - - - -
06.07.2020 23:00:00 - - - - - - - -
06.07.2020 22:00:00 - - - - - - - -
06.07.2020 21:00:00 25,0 20,0 11 6 S - 10 -
06.07.2020 20:00:00 25,0 20,0 9 5 SSW - 10 -
06.07.2020 19:00:00 25,0 21,0 13 7 S - 10 -
06.07.2020 18:00:00 26,0 21,0 18 10 S - 10 -
06.07.2020 17:00:00 27,0 20,0 18 10 S - 10 -
06.07.2020 16:00:00 28,0 19,0 24 13 S - 10 -
06.07.2020 15:00:00 28,0 19,0 26 14 S - 10 -
06.07.2020 14:00:00 29,0 19,0 22 12 S - 10 -
06.07.2020 13:00:00 29,0 20,0 24 13 S - 10 -
06.07.2020 12:00:00 28,0 20,0 24 13 S - 10 -
06.07.2020 11:00:00 28,0 20,0 24 13 SSW - 10 -
06.07.2020 10:00:00 26,0 21,0 28 15 SSW - 10 -
06.07.2020 09:00:00 24,0 21,0 21 11 SSW - 10 -
06.07.2020 08:00:00 23,0 21,0 18 10 SW - 10 -
06.07.2020 07:00:00 23,0 22,0 16 9 SSW - 10 -
06.07.2020 06:00:00 22,0 21,0 5 3 SW - 10 -
06.07.2020 05:00:00 22,0 21,0 5 3 SW - 10 -
06.07.2020 04:00:00 22,0 21,0 5 3 SSW - 10 -
06.07.2020 03:00:00 22,1 22,0 9 5 WSW 1013,8 10 0,0
06.07.2020 02:00:00 - - - - - - - -
06.07.2020 01:00:00 23,0 21,0 8 4 SSW - 10 -
06.07.2020 00:00:00 24,0 21,1 15 8 S 1014,9 30 -
05.07.2020 23:00:00 24,0 21,0 11 6 S - 10 -
05.07.2020 22:00:00 25,0 21,0 13 7 S - 10 -
05.07.2020 21:00:00 24,8 21,0 11 6 S 1014,7 10 0,0
05.07.2020 20:00:00 23,0 18,0 42 23 SE - 10 -
05.07.2020 19:00:00 25,0 21,0 13 7 S - 10 -
05.07.2020 18:00:00 26,0 20,8 16 9 S 1013,1 30 -
05.07.2020 17:00:00 27,0 21,0 18 10 S - 10 -
05.07.2020 16:00:00 27,0 19,0 24 13 S - 10 -
05.07.2020 15:00:00 27,6 20,5 26 14 S 1013,2 30 0,0
05.07.2020 14:00:00 29,0 21,0 24 13 S - 10 -
05.07.2020 13:00:00 27,0 20,0 18 10 S - 10 -
05.07.2020 12:00:00 27,9 20,5 24 13 S 1015,3 30 -
05.07.2020 11:00:00 28,0 22,0 28 15 SSW - 10 -
05.07.2020 10:00:00 27,0 22,0 29 16 SSW - 10 -
05.07.2020 09:00:00 25,2 22,4 21 11 SW 1015,9 10 -
05.07.2020 08:00:00 24,0 22,0 16 9 SW - 10 -
05.07.2020 07:00:00 23,0 22,0 9 5 SW - 10 -
05.07.2020 06:00:00 22,9 21,8 13 7 SW 1014,1 10 -
05.07.2020 05:00:00 23,0 22,0 11 6 SW - 10 -
05.07.2020 04:00:00 23,0 22,0 9 5 SW - 10 -
05.07.2020 03:00:00 23,5 22,3 13 7 SSW 1013,8 20 -
05.07.2020 02:00:00 23,0 22,0 11 6 SW - 10 -
05.07.2020 01:00:00 24,0 21,0 11 6 SSW - 10 -
05.07.2020 00:00:00 24,4 21,4 15 8 SSW 1015,9 10 -
04.07.2020 23:00:00 24,0 21,0 11 6 SSW - 10 -
04.07.2020 22:00:00 23,0 22,0 11 6 SW - 10 -
04.07.2020 21:00:00 22,7 21,3 11 6 SSW 1016,1 10 -
04.07.2020 20:00:00 23,0 21,0 9 5 SSW - 10 -
04.07.2020 19:00:00 25,0 21,0 13 7 S - 10 -
04.07.2020 18:00:00 24,5 21,0 15 8 SSW 1015,3 10 -
04.07.2020 17:00:00 24,0 22,0 18 10 S - 10 -
04.07.2020 16:00:00 26,0 21,0 16 9 S - 10 -
04.07.2020 15:00:00 27,0 20,6 18 10 S 1014,7 20 0,0
04.07.2020 14:00:00 28,0 21,0 28 15 SSW - 10 -
04.07.2020 13:00:00 28,0 21,0 29 16 SSW - 10 -
04.07.2020 12:00:00 27,7 20,9 26 14 SSW 1016,2 10 -
04.07.2020 11:00:00 28,0 22,0 22 12 SSW - 10 -
04.07.2020 10:00:00 25,0 22,0 24 13 SSW - 10 -
04.07.2020 09:00:00 24,0 22,2 16 9 SSW 1016,8 20 -
04.07.2020 08:00:00 23,0 22,0 13 7 SSW - 10 -
04.07.2020 07:00:00 22,0 21,0 8 4 WSW - 10 -
04.07.2020 06:00:00 22,0 21,2 5 3 W 1015,4 10 -
04.07.2020 05:00:00 22,0 21,0 11 6 WSW - 10 -
04.07.2020 04:00:00 22,0 21,0 5 3 SW - 10 -
04.07.2020 03:00:00 22,5 21,4 13 7 SW 1014,2 10 0,0
04.07.2020 02:00:00 22,0 21,0 9 5 SW - 10 -
04.07.2020 01:00:00 22,0 21,0 8 4 SW - 10 -
04.07.2020 00:00:00 22,4 20,8 5 3 SW 1015,9 30 -
03.07.2020 23:00:00 23,0 21,0 9 5 SW - 10 -
03.07.2020 22:00:00 23,0 21,0 5 3 SW - 10 -
03.07.2020 21:00:00 23,8 21,0 9 5 SW 1015,6 10 0,0
03.07.2020 20:00:00 25,0 21,0 9 5 SSW - 10 -
03.07.2020 19:00:00 25,0 21,0 15 8 S - 10 -
03.07.2020 18:00:00 26,9 19,7 15 8 S 1014,3 30 -
03.07.2020 17:00:00 28,0 20,0 18 10 SSW - 10 -
03.07.2020 16:00:00 29,0 19,0 16 9 S - 10 -
03.07.2020 15:00:00 29,2 19,1 29 16 S 1013,9 10 0,0
03.07.2020 14:00:00 29,0 20,0 24 13 SSW - 10 -
03.07.2020 13:00:00 29,0 20,0 21 11 S - 10 -
03.07.2020 12:00:00 28,4 20,9 18 10 S 1016,6 30 -
03.07.2020 11:00:00 27,0 22,0 22 12 SSW - 10 -
03.07.2020 10:00:00 25,0 22,0 16 9 SSW - 10 -
03.07.2020 09:00:00 23,5 20,4 11 6 WSW 1017,8 30 -
03.07.2020 08:00:00 23,0 20,0 9 5 WSW - 10 -
03.07.2020 07:00:00 22,0 20,0 9 5 WSW - 10 -
03.07.2020 06:00:00 20,9 19,4 9 5 WSW 1015,3 10 -
03.07.2020 05:00:00 21,0 20,0 9 5 WSW - 10 -
03.07.2020 04:00:00 22,0 20,0 8 4 WSW - 10 -
03.07.2020 03:00:00 21,6 20,3 9 5 WSW 1014,6 30 0,0
03.07.2020 02:00:00 22,0 20,0 8 4 WSW - 10 -
03.07.2020 01:00:00 22,0 20,0 8 4 SW - 10 -
03.07.2020 00:00:00 22,7 19,5 11 6 WSW 1016,3 30 -
02.07.2020 23:00:00 23,0 20,0 9 5 SW - 10 -
02.07.2020 22:00:00 24,0 20,0 8 4 SSW - 10 -
02.07.2020 21:00:00 24,6 19,1 11 6 S 1016,4 30 -
02.07.2020 20:00:00 25,0 20,0 15 8 S - 10 -
02.07.2020 19:00:00 25,0 21,0 8 4 S - 10 -
02.07.2020 18:00:00 25,4 21,0 13 7 S 1014,0 10 -
02.07.2020 17:00:00 26,0 20,0 18 10 S - 10 -

tt = temperature
td = dewpoint
ff = wind speed
dd = wind direction
ppp = reduced air pressure
vv = visibility
rr = precipitation

Next stations